OSLO / FORNEBU current weather conditions

sailwx.info

Wind from 100 at 4 knots

Air temperature 7.0° C
Visibility: greater than 5.4 NM
Dewpoint 4.0° C

Last reported at 2016-Feb-09 01:20 UTC.
Time now 2016-Feb-09 03:15 UTC

Location: N 59°54' E 010°38'.
View on Google Maps.

See reports from other nearby stations

  
Tides and Currents Weather Stations Pressure Air Temp Water Temp Dewpoint Dewpoint Depression Visibility Wind Speed Wind Dir Waves Ship Positions
date/time (UTC)wind fromknots sea level pressurealtimeterstation pressurevisibilityair tempwater tempwave heightnotes
2016-Feb-09 02:20 050 3 5.4 7.0
2016-Feb-09 01:50 080 4 5.4 7.0
2016-Feb-09 01:20 100 4 5.4 7.0
2016-Feb-09 00:50 130 3 5.4 7.0
2016-Feb-09 00:20 5.4 7.0
2016-Feb-08 23:50 190 7 5.4 7.0
2016-Feb-08 23:20 190 8 5.4 6.0
2016-Feb-08 22:50 5.4 6.0
2016-Feb-08 22:20 200 6 5.4 6.0
2016-Feb-08 21:50 210 4 5.4 6.0
2016-Feb-08 21:20 260 5 5.4 6.0
2016-Feb-08 20:50 230 6 5.4 6.0
2016-Feb-08 20:20 250 7 5.4 6.0
2016-Feb-08 19:50 230 10 5.4 6.0
2016-Feb-08 19:20 220 10 5.4 6.0 Light rain.
2016-Feb-08 18:50 230 10 5.4 6.0
2016-Feb-08 18:20 240 8 5.4 6.0
2016-Feb-08 17:50 240 9 5.4 6.0
2016-Feb-08 17:20 240 9 5.4 6.0
2016-Feb-08 16:50 250 8 5.4 6.0
2016-Feb-08 16:20 260 9 5.4 6.0
2016-Feb-08 15:50 270 9 5.4 6.0
2016-Feb-08 15:20 260 9 5.4 6.0
2016-Feb-08 14:50 280 8 5.4 6.0
2016-Feb-08 14:20 280 7 5.4 6.0
2016-Feb-08 13:50 300 5 5.4 7.0
2016-Feb-08 13:20 330 2 5.4 7.0
2016-Feb-08 12:50 360 3 5.4 6.0
2016-Feb-08 12:20 040 5 5.4 7.0
2016-Feb-08 11:50 050 4 5.4 7.0
2016-Feb-08 11:20 100 7 5.4 6.0 Light rain.
2016-Feb-08 10:50 130 9 5.4 6.0 Light rain showers.
2016-Feb-08 10:20 140 11 5.4 7.0 Light rain showers.
2016-Feb-08 09:50 140 13 5.4 7.0
2016-Feb-08 09:20 150 16 5.4 7.0
2016-Feb-08 08:50 150 18 5.4 7.0
2016-Feb-08 08:20 160 19 5.4 7.0 Light rain showers.
2016-Feb-08 07:50 180 14 4.3 6.0 Light rain.
2016-Feb-08 07:20 170 18 5.4 7.0
2016-Feb-08 06:50 190 20 5.4 7.0
2016-Feb-08 06:20 190 23 5.4 6.0
2016-Feb-08 05:50 200 22 5.4 6.0
2016-Feb-08 05:20 200 24 5.4 6.0
2016-Feb-08 04:50 200 25 5.4 6.0
2016-Feb-08 04:20 190 27 5.4 6.0
2016-Feb-08 03:50 190 27 5.4 7.0
2016-Feb-08 03:20 200 26 5.4 6.0
2016-Feb-08 02:50 200 30 5.4 6.0
2016-Feb-08 02:20 210 27 5.4 6.0
2016-Feb-08 01:50 210 33 5.4 6.0
2016-Feb-08 01:20 210 30 5.4 6.0 Light rain.
2016-Feb-08 00:50 210 32 5.4 6.0 Light rain showers.
2016-Feb-08 00:20 200 29 5.4 6.0
2016-Feb-07 23:50 200 30 5.4 6.0
2016-Feb-07 23:20 190 26 5.4 6.0
2016-Feb-07 22:50 190 26 5.4 6.0 Light rain showers.
2016-Feb-07 22:20 160 26 2.7 7.0 Rain showers.
2016-Feb-07 21:50 130 33 5.4 7.0
2016-Feb-07 21:20 130 42 5.4 7.0 Light rain.
2016-Feb-07 20:50 130 43 4.3 7.0 Light rain.
2016-Feb-07 20:20 130 41 5.4 6.0 Light rain.
2016-Feb-07 19:50 130 41 3.8 6.0 Light rain.
2016-Feb-07 19:20 140 44 5.4 7.0 Rain.
2016-Feb-07 18:50 140 40 5.4 7.0
2016-Feb-07 18:20 150 39 5.4 7.0
2016-Feb-07 17:50 150 40 5.4 7.0
2016-Feb-07 17:20 150 36 5.4 7.0
2016-Feb-07 16:50 160 37 5.4 7.0
2016-Feb-07 16:20 170 39 5.4 7.0
2016-Feb-07 15:50 170 40 5.4 7.0
2016-Feb-07 15:20 170 40 5.4 7.0
2016-Feb-07 14:50 180 39 5.4 7.0
2016-Feb-07 14:20 180 36 5.4 7.0
2016-Feb-07 13:50 180 30 5.4 7.0
2016-Feb-07 13:20 180 36 5.4 7.0
2016-Feb-07 12:50 190 34 5.4 7.0
2016-Feb-07 12:20 190 38 5.4 7.0
2016-Feb-07 11:50 190 37 gusting 47 2.7 6.0 Light rain.
2016-Feb-07 11:20 180 32 5.4 7.0
2016-Feb-07 10:50 180 30 5.4 7.0
2016-Feb-07 10:20 180 25 5.4 7.0
2016-Feb-07 09:50 200 30 5.4 6.0 Light rain.
2016-Feb-07 09:20 210 32 4.3 6.0 Light rain showers.
2016-Feb-07 08:50 210 31 4.9 6.0 Light rain showers.
2016-Feb-07 08:20 200 29 5.4 7.0 Light rain.
2016-Feb-07 07:50 160 32 5.4 8.0 Light rain.
2016-Feb-07 07:20 150 29 4.3 8.0 Light rain.
2016-Feb-07 06:50 150 27 3.2 8.0 Light rain.
2016-Feb-07 06:20 150 25 4.9 8.0 Light rain.
2016-Feb-07 05:50 150 24 3.2 8.0 Light rain.
2016-Feb-07 05:20 140 17 1.6 8.0 Light rain showers. Mist.
2016-Feb-07 04:50 150 14 2.0 8.0 Light rain showers. Mist.
2016-Feb-07 04:20 150 12 5.4 8.0
2016-Feb-07 03:50 160 13 5.4 8.0
2016-Feb-07 03:20 100 16 5.4 7.0